Ord, NE

6:19 AM CST on November 22, 2017 (GMT -0600)
Sharp

Weather History for KODX - November, 2013

Change the Weather History Date:

Wednesday, November 13, 2013

  Actual Average Record
Temperature  
Mean Temperature 45 °F 38 °F  
Max Temperature 62 °F 50 °F 81 °F (1999)
Min Temperature 27 °F 25 °F -2 °F (2014)
Degree Days  
Heating Degree Days 20 27  
Month to date heating degree days 354 319  
Since 1 July heating degree days 928 939  
Cooling Degree Days 0 0  
Month to date cooling degree days 0 0  
Year to date cooling degree days 907 845  
Moisture  
Dew Point 28 °F    
Average Humidity 60    
Maximum Humidity 85    
Minimum Humidity 35    
Precipitation  
Precipitation 0.00 in 0.04 in 1.10 in (1922)
Month to date precipitation 0.47 0.54  
Year to date precipitation 24.32 23.82  
Sea Level Pressure  
Sea Level Pressure 30.17 in    
Wind  
Wind Speed 7 mph (South)    
Max Wind Speed 23 mph    
Max Gust Speed 30 mph    
Visibility 10 miles    
Events      
T = Trace of Precipitation, MM = Missing Value Source: NWS Daily Summary

Daily Weather History Graph

Daily Weather History Graph

Search for Another Location

Airport or City:

Trip Planner

Search our weather history database for the weather conditions in past years. The results will help you decide how hot, cold, wet, or windy it might be!

Date:

Astronomy

Nov. 13, 2013 Rise Set
Actual Time 7:22 AM CST 5:17 PM CST
Civil Twilight 6:52 AM CST 5:46 PM CST
Nautical Twilight 6:19 AM CST 6:20 PM CST
Astronomical Twilight 5:46 AM CST 6:52 PM CST
Moon 3:08 PM CST (11/13) 3:14 AM CST (11/13)
Length of Visible Light 10h 53m
Length of Day
9h 54m
Waxing Gibbous, 85% of the Moon is Illuminated
Nov 13
Waxing Gibbous
Nov 17
Full
Nov 25
Last Quarter
Dec 2
New
Dec 9
First Quarter

Hourly Weather History & Observations

Time (CST) Temp. Windchill Dew Point Humidity Pressure Visibility Wind Dir Wind Speed Gust Speed Precip Events Conditions
12:53 AM 28.0 °F 20.8 °F 21.0 °F 75% 30.46 in 10.0 mi South 6.9 mph - N/A   Clear
1:53 AM 27.0 °F 21.6 °F 21.9 °F 81% 30.44 in 10.0 mi South 4.6 mph - N/A   Clear
2:53 AM 27.0 °F 19.5 °F 21.9 °F 81% 30.41 in 10.0 mi South 6.9 mph - N/A   Clear
3:53 AM 28.0 °F 22.8 °F 23.0 °F 81% 30.38 in 10.0 mi South 4.6 mph - N/A   Clear
4:53 AM 28.0 °F 20.0 °F 24.1 °F 85% 30.35 in 10.0 mi South 8.1 mph - N/A   Clear
5:53 AM 28.9 °F 22.8 °F 24.1 °F 82% 30.34 in 10.0 mi SSE 5.8 mph - N/A   Clear
6:53 AM 28.0 °F 20.8 °F 23.0 °F 81% 30.32 in 10.0 mi SSE 6.9 mph - N/A   Clear
7:53 AM 28.9 °F 23.9 °F 24.1 °F 82% 30.30 in 10.0 mi SE 4.6 mph - N/A   Clear
8:53 AM 32.0 °F 25.6 °F 27.0 °F 82% 30.27 in 10.0 mi South 6.9 mph - N/A   Clear
9:53 AM 39.0 °F 31.8 °F 28.9 °F 67% 30.23 in 10.0 mi SSW 11.5 mph - N/A   Clear
10:53 AM 46.9 °F - 30.9 °F 54% 30.19 in 10.0 mi SSW 12.7 mph - N/A   Clear
11:53 AM 54.0 °F - 32.0 °F 43% 30.14 in 10.0 mi South 13.8 mph - N/A   Clear
12:53 PM 59.0 °F - 32.0 °F 36% 30.08 in 10.0 mi SSW 18.4 mph 26.5 mph N/A   Clear
1:53 PM 61.0 °F - 32.0 °F 34% 30.04 in 10.0 mi SSW 15.0 mph 24.2 mph N/A   Clear
2:53 PM 61.0 °F - 32.0 °F 34% 30.03 in 10.0 mi SW 15.0 mph 19.6 mph N/A   Clear
3:53 PM 60.1 °F - 33.1 °F 36% 30.01 in 10.0 mi SSW 15.0 mph - N/A   Clear
4:53 PM 54.0 °F - 34.0 °F 47% 30.01 in 10.0 mi South 6.9 mph - N/A   Clear
5:53 PM 46.0 °F - 32.0 °F 58% 30.02 in 10.0 mi Calm Calm - N/A   Clear
6:53 PM 45.0 °F - 33.1 °F 63% 30.02 in 10.0 mi Calm Calm - N/A   Clear
7:53 PM 44.1 °F - 33.1 °F 65% 30.01 in 10.0 mi Calm Calm - N/A   Clear
8:53 PM 39.0 °F 34.8 °F 30.9 °F 73% 30.01 in 10.0 mi NNW 5.8 mph - N/A   Clear
9:53 PM 34.0 °F - 28.9 °F 82% 29.99 in 10.0 mi Calm Calm - N/A   Clear
10:53 PM 32.0 °F - 28.9 °F 88% 29.96 in 10.0 mi Calm Calm - N/A   Clear
11:53 PM 33.1 °F - 28.9 °F 85% 29.95 in 10.0 mi Calm Calm - N/A   Clear